Weather History for KEFT - May, 2014

Change the Weather History Date:

Tuesday, May 6, 2014

  Actual Average Record
Temperature  
Mean Temperature 50 °F -  
Max Temperature 62 °F 0 °F 80 °F (2000)
Min Temperature 37 °F - 35 °F (2006)
Degree Days  
Heating Degree Days 16    
Moisture  
Dew Point 36 °F    
Average Humidity 54    
Maximum Humidity 87    
Minimum Humidity 37    
Precipitation  
Precipitation 0.00 in - - ()
Sea Level Pressure  
Sea Level Pressure 29.93 in    
Wind  
Wind Speed 12 mph (ENE)    
Max Wind Speed 22 mph    
Max Gust Speed 31 mph    
Visibility 10 miles    
Events      
Averages and records for this station are not official NWS values.
T = Trace of Precipitation, MM = Missing Value Source: NWS Daily Summary

Daily Weather History Graph

Daily Weather History Graph

Search for Another Location

Airport or City:

Trip Planner

Search our weather history database for the weather conditions in past years. The results will help you decide how hot, cold, wet, or windy it might be!

Date:

Astronomy

May. 06, 2014 Rise Set
Actual Time 5:46 AM CDT 8:04 PM CDT
Civil Twilight 5:15 AM CDT 8:35 PM CDT
Nautical Twilight 4:36 AM CDT 9:14 PM CDT
Astronomical Twilight 3:53 AM CDT 9:57 PM CDT
Moon 12:04 PM CDT (5/6) 1:22 AM CDT (5/6)
Length of Visible Light 15h 20m
Length of Day
14h 17m
Waxing Crescent, 46% of the Moon is Illuminated
May 6
Waxing Crescent
May 6
First Quarter
May 14
Full
May 21
Last Quarter
May 28
New

Hourly Weather History & Observations

Time (CDT) Temp. Windchill Dew Point Humidity Pressure Visibility Wind Dir Wind Speed Gust Speed Precip Events Conditions
12:15 AM 41.0 °F 35.8 °F 33.8 °F 76% 30.00 in 10.0 mi NE 8.1 mph - N/A   Clear
12:30 AM 41.0 °F 36.4 °F 33.8 °F 76% 30.00 in 10.0 mi ENE 6.9 mph - N/A   Clear
12:55 AM 41.0 °F 35.2 °F 33.8 °F 76% 30.00 in 10.0 mi NE 9.2 mph - N/A   Clear
1:15 AM 39.2 °F 33.6 °F 33.8 °F 81% 29.99 in 10.0 mi NE 8.1 mph - N/A   Clear
1:35 AM 39.2 °F 33.0 °F 33.8 °F 81% 29.99 in 10.0 mi NE 9.2 mph - N/A   Clear
1:55 AM 37.4 °F 30.8 °F 33.8 °F 87% 29.98 in 10.0 mi NE 9.2 mph - N/A   Clear
2:15 AM 39.2 °F 33.6 °F 33.8 °F 81% 29.98 in 10.0 mi NE 8.1 mph - N/A   Clear
2:35 AM 37.4 °F 32.1 °F 33.8 °F 87% 29.98 in 10.0 mi ENE 6.9 mph - N/A   Clear
6:55 AM 41.0 °F 35.2 °F 32.0 °F 70% 29.99 in 10.0 mi ENE 9.2 mph - N/A   Clear
7:15 AM 41.0 °F 38.0 °F 32.0 °F 70% 29.99 in 10.0 mi ENE 4.6 mph - N/A   Clear
7:35 AM 42.8 °F 37.0 °F 33.8 °F 70% 30.00 in 10.0 mi ENE 10.4 mph - N/A   Clear
7:55 AM 44.6 °F 39.2 °F 33.8 °F 66% 30.00 in 10.0 mi East 10.4 mph - N/A   Clear
8:15 AM 46.4 °F 40.7 °F 33.8 °F 62% 30.01 in 10.0 mi East 12.7 mph 16.1 mph N/A   Clear
9:15 AM 51.8 °F - 35.6 °F 54% 30.00 in 10.0 mi East 13.8 mph - N/A   Clear
9:35 AM 51.8 °F - 37.4 °F 58% 30.00 in 10.0 mi East 13.8 mph - N/A   Clear
9:55 AM 53.6 °F - 37.4 °F 54% 30.01 in 10.0 mi East 15.0 mph 21.9 mph N/A   Clear
10:15 AM 53.6 °F - 37.4 °F 54% 30.00 in 10.0 mi East 18.4 mph 25.3 mph N/A   Clear
10:30 AM 55.4 °F - 37.4 °F 51% 30.00 in 10.0 mi East 11.5 mph 19.6 mph N/A   Clear
10:55 AM 55.4 °F - 37.4 °F 51% 29.99 in 10.0 mi East 12.7 mph 24.2 mph N/A   Clear
11:15 AM 57.2 °F - 37.4 °F 48% 29.99 in 10.0 mi East 13.8 mph 23.0 mph N/A   Clear
11:35 AM 59.0 °F - 37.4 °F 45% 29.98 in 10.0 mi ENE 11.5 mph 17.3 mph N/A   Clear
11:55 AM 59.0 °F - 37.4 °F 45% 29.97 in 10.0 mi East 16.1 mph 23.0 mph N/A   Clear
12:15 PM 60.8 °F - 37.4 °F 42% 29.96 in 10.0 mi ENE 19.6 mph 26.5 mph N/A   Clear
12:35 PM 60.8 °F - 37.4 °F 42% 29.96 in 10.0 mi ENE 19.6 mph 24.2 mph N/A   Clear
12:55 PM 60.8 °F - 37.4 °F 42% 29.95 in 10.0 mi ENE 17.3 mph 25.3 mph N/A   Clear
1:15 PM 60.8 °F - 35.6 °F 39% 29.94 in 10.0 mi ENE 13.8 mph 26.5 mph N/A   Clear
1:35 PM 62.6 °F - 37.4 °F 39% 29.93 in 10.0 mi East 16.1 mph 25.3 mph N/A   Clear
1:50 PM 62.6 °F - 37.4 °F 39% 29.92 in 10.0 mi East 20.7 mph 31.1 mph N/A   Clear
2:15 PM 62.6 °F - 35.6 °F 37% 29.91 in 10.0 mi East 21.9 mph 28.8 mph N/A   Clear
2:30 PM 62.6 °F - 35.6 °F 37% 29.91 in 10.0 mi East 18.4 mph 25.3 mph N/A   Clear
3:15 PM 62.6 °F - 35.6 °F 37% 29.90 in 10.0 mi East 17.3 mph 26.5 mph N/A   Clear
3:35 PM 62.6 °F - 35.6 °F 37% 29.89 in 10.0 mi East 17.3 mph 24.2 mph N/A   Clear
3:55 PM 62.6 °F - 35.6 °F 37% 29.88 in 10.0 mi East 16.1 mph 26.5 mph N/A   Clear
4:15 PM 62.6 °F - 37.4 °F 39% 29.86 in 10.0 mi ENE 20.7 mph 26.5 mph N/A   Clear
4:35 PM 62.6 °F - 35.6 °F 37% 29.88 in 10.0 mi East 13.8 mph 26.5 mph N/A   Clear
4:55 PM 62.6 °F - 35.6 °F 37% 29.87 in 10.0 mi East 15.0 mph 26.5 mph N/A   Clear
5:10 PM 62.6 °F - 35.6 °F 37% 29.86 in 10.0 mi East 16.1 mph 25.3 mph N/A   Mostly Cloudy
5:35 PM 60.8 °F - 35.6 °F 39% 29.85 in 10.0 mi East 20.7 mph 26.5 mph N/A   Scattered Clouds
5:55 PM 60.8 °F - 37.4 °F 42% 29.85 in 10.0 mi East 17.3 mph 27.6 mph N/A   Scattered Clouds
6:15 PM 59.0 °F - 39.2 °F 48% 29.86 in 10.0 mi East 18.4 mph 26.5 mph N/A   Mostly Cloudy
6:35 PM 59.0 °F - 39.2 °F 48% 29.86 in 10.0 mi East 16.1 mph 21.9 mph N/A   Mostly Cloudy
6:55 PM 59.0 °F - 39.2 °F 48% 29.86 in 10.0 mi East 17.3 mph 26.5 mph N/A   Mostly Cloudy
7:15 PM 57.2 °F - 39.2 °F 51% 29.86 in 10.0 mi East 17.3 mph 26.5 mph N/A   Overcast
7:35 PM 57.2 °F - 37.4 °F 48% 29.87 in 10.0 mi East 15.0 mph 21.9 mph N/A   Mostly Cloudy
7:55 PM 55.4 °F - 39.2 °F 54% 29.86 in 10.0 mi ENE 16.1 mph 21.9 mph N/A   Mostly Cloudy
8:15 PM 55.4 °F - 39.2 °F 54% 29.85 in 10.0 mi East 17.3 mph 25.3 mph N/A   Scattered Clouds
8:35 PM 53.6 °F - 37.4 °F 54% 29.86 in 10.0 mi ENE 18.4 mph 24.2 mph N/A   Clear
8:55 PM 53.6 °F - 37.4 °F 54% 29.86 in 10.0 mi ENE 15.0 mph 25.3 mph N/A   Clear
9:15 PM 51.8 °F - 37.4 °F 58% 29.86 in 10.0 mi ENE 17.3 mph 27.6 mph N/A   Clear
9:35 PM 51.8 °F - 37.4 °F 58% 29.87 in 10.0 mi ENE 19.6 mph 25.3 mph N/A   Clear
9:55 PM 50.0 °F - 35.6 °F 58% 29.86 in 10.0 mi ENE 17.3 mph 24.2 mph N/A   Mostly Cloudy
10:15 PM 50.0 °F - 35.6 °F 58% 29.86 in 10.0 mi East 13.8 mph 19.6 mph N/A   Overcast
11:15 PM 50.0 °F - 35.6 °F 58% 29.86 in 10.0 mi NE 10.4 mph 17.3 mph N/A   Overcast
11:35 PM 50.0 °F - 35.6 °F 58% 29.86 in 10.0 mi ENE 12.7 mph - N/A   Overcast
11:55 PM 51.8 °F - 35.6 °F 54% 29.85 in 10.0 mi ENE 16.1 mph 23.0 mph N/A   Overcast